Regional Weather Roundup
Issued by NWS

Home | Current Version | Previous Version | Graphics & Text | Print | Product List | Glossary On
Versions: 1 2 3 4 5 6 7 8 9 10 11 12 13 14 15 16 17 18 19 20 21 22 23 24 25 26 27 28 29 30 31 32 33 34 35 36 37 38 39 40 41 42 43 44 45 46 47 48 49 50
000
ASUS43 KFSD 051002
RWRSD

WEATHER ROUNDUP FOR SOUTH DAKOTA
NATIONAL WEATHER SERVICE SIOUX FALLS SD
400 AM CST MON DEC 05 2016

NOTE: "FAIR" INDICATES FEW OR NO CLOUDS BELOW 12,000 FEET WITH NO
SIGNIFICANT WEATHER AND/OR OBSTRUCTIONS TO VISIBILITY.


SDZ001>005-009-010-012>017-051100-
NORTHWEST AND NORTH CENTRAL SOUTH DAKOTA

CITY           SKY/WX    TMP DP  RH WIND       PRES   REMARKS
BUFFALO          N/A     34  27  75 NW23      29.45R WCI  22
FAITH            N/A     29  22  75 S7        29.49F WCI  22
MOBRIDGE       CLEAR     32  20  61 E12       29.51F WCI  23
$$

SDZ012>016-024>037-041>051-057-063-072>074-051100-
SOUTHWEST AND SOUTH CENTRAL SOUTH DAKOTA

CITY           SKY/WX    TMP DP  RH WIND       PRES   REMARKS
RAPID CTY ARPT CLOUDY    33  21  61 NE3       29.48F
PIERRE         CLEAR     29  23  78 SE5       29.52F WCI  24
CUSTER         CLOUDY    34  19  54 SW8       29.48F WCI  27
PHILIP         CLOUDY    27  24  89 CALM      29.50F
PINE RIDGE     PTCLDY    37  26  64 SW3       29.52F
SPEARFISH      LGT SNOW  34  28  80 NW13G20   29.53S WCI  25
WINNER         FAIR      37  21  52 SW15      29.54F
$$

SDZ004>011-016>023-039-040-051100-
NORTHEAST SOUTH DAKOTA

CITY           SKY/WX    TMP DP  RH WIND       PRES   REMARKS
ABERDEEN       CLOUDY    30  25  81 E7        29.61F WCI  23
WATERTOWN      PTCLDY    31  27  85 SE6       29.64F WCI  25
SISSETON         N/A     27  24  89 SE8       29.66F WCI  19
$$

SDZ017-020-022-023-036>040-048>070-051100-
SOUTHEAST SOUTH DAKOTA

CITY           SKY/WX    TMP DP  RH WIND       PRES   REMARKS
SIOUX FALLS    CLOUDY    35  30  82 SE9       29.66F WCI  28
HURON          CLOUDY    32  28  85 SE7       29.60F WCI  26
CHAMBERLAIN    CLOUDY    31  29  89 SE6       29.56F WCI  26
MITCHELL       CLOUDY    32  27  81 SE9       29.62F WCI  24
YANKTON        CLOUDY    36  25  64 S10       29.65F
$$

ABBREVIATIONS USED IN REMARKS
   TC - TEMPERATURE IN CELSIUS
  WCI - WIND CHILL INDEX
   HX - HEAT INDEX
  VSB - VISIBILITY




USA.gov is the U.S. government's official web portal to all federal, state and local government web resources and services.